User: anonymous   Login
Location: Cherry Springs State Park
(41.6616°N, 77.8240°W)
Time: 14:18:17
(UTC-04:00)
Language:

Cosmos 1437 - Orbit

View from above orbital plane
View from above orbital plane
View from above satellite
View from above satellite

Ground track
Ground track

The orbit data is extracted from the following two-line orbital elements,

1 13770U 83003A   15124.29850627  .00010736  00000-0  27725-3 0  9997
2 13770 081.1646 011.9954 0010317 090.9779 025.4363 15.38949196766814
Epoch (UTC): 04 May 2015 07:09:50
Eccentricity: 0.0010317
inclination: 81.1646°
perigee height: 442 km
apogee height: 456 km
right ascension of ascending node: 11.9954°
argument of perigee: 90.9779°
revolutions per day: 15.38949196
mean anomaly at epoch: 25.4363°
orbit number at epoch: 76681

The dashed part of the orbit path shows where the satellite is in the earth's shadow,  

DLR